Regional Weather Roundup
Issued by NWS

Home | Current Version | Previous Version | Text Only | Print | Product List | Glossary Off
Versions: 1 2 3 4 5 6 7 8 9 10 11 12 13 14 15 16 17 18 19 20 21 22 23 24 25 26 27 28 29 30 31 32 33 34 35 36 37 38 39 40 41 42 43 44 45 46 47 48 49 50

000
ASUS45 KPSR 230710
RWRAZ

ARIZONA HOURLY REGIONAL WEATHER ROUNDUP
NATIONAL WEATHER SERVICE PHOENIX AZ
1200 AM MST SUN APR 23 2017

NOTE: FAIR INDICATES FEW OR NO CLOUDS BELOW 12,000 FEET WITH NO
SIGNIFICANT WEATHER AND/OR OBSTRUCTIONS TO VISIBILITY.

AZZ001>003-036-230800-
NORTHWEST ARIZONA

CITY           SKY/WX    TMP DP  RH WIND       PRES   REMARKS
BULLHEAD CITY  CLEAR     73  25  16 E7        29.78S
KINGMAN        CLEAR     55  26  32 CALM      29.96S
$$

AZZ004>008-015-016-018-230800-
NORTH CENTRAL ARIZONA

CITY           SKY/WX    TMP DP  RH WIND       PRES   REMARKS
GRAND CANYON   CLEAR     38  23  55 E5        30.13F WCI  34
WILLIAMS       CLEAR     48  21  34 S10       30.14F
PRESCOTT       CLEAR     53  25  33 S6        30.05S
FLAGSTAFF      CLEAR     37  21  52 CALM      30.17F
PAYSON         CLEAR     55  25  30 CALM      30.09S
PAGE           PTCLDY    55  23  28 SW3       30.04F
$$

AZZ009>014-017-230800-
NORTHEAST ARIZONA

CITY           SKY/WX    TMP DP  RH WIND       PRES   REMARKS
WINSLOW        CLEAR     48  21  34 S5        30.08S
SAINT JOHNS    CLEAR     51  19  28 S5        30.11S
WINDOW ROCK    CLEAR     39  18  42 CALM      30.19S
SHOW LOW       CLEAR     43  18  36 CALM      30.15F
$$

AZZ540-542>544-546-548-230800-
GREATER PHOENIX AREA

CITY           SKY/WX    TMP DP  RH WIND       PRES   REMARKS
PHOENIX        CLEAR     77  31  18 E9        29.79S
BUCKEYE        CLEAR     70  23  17 NW8       29.80S
LUKE AFB       CLEAR     71  34  26 N7        29.79S
DEER VALLEY    CLEAR     73  27  18 NE5       29.82S
SCOTTSDALE     CLEAR     76  30  18 CALM      29.83S
MESA-GATEWAY   CLEAR     70  21  16 E7        29.83S
$$

AZZ539-553-230800-
SOUTHWEST MARICOPA COUNTY AND PINAL COUNTY

CITY           SKY/WX    TMP DP  RH WIND       PRES   REMARKS
CASA GRANDE    CLEAR     71  21  15 S3        29.84S
GILA BEND      FAIR      73  15  11 SE8       29.79S
$$

AZZ503-504-507>509-230800-
SOUTHEAST ARIZONA

CITY           SKY/WX    TMP DP  RH WIND       PRES   REMARKS
TUCSON         CLEAR     68  17  14 SE3       29.93S
DAVIS-MONTHAN  CLEAR     66  18  15 SE6       29.92R
NOGALES        CLEAR     58  14  17 SE3       29.99S
SIERRA VISTA   CLEAR     65  12  12 W6        30.05S
DOUGLAS        CLEAR     61  17  18 E8        30.02S
SAFFORD        CLEAR     72  33  24 E10       29.98R
$$

AZZ532-230800-
SOUTHWEST ARIZONA

CITY           SKY/WX    TMP DP  RH WIND       PRES   REMARKS
YUMA           CLEAR     77  37  23 W6        29.77R
$$

CAZ041-043-047-048-061-525>527-560>570-230800-
SOUTHERN CALIFORNIA

CITY           SKY/WX    TMP DP  RH WIND       PRES   REMARKS
DOWNTOWN L.A.  MOCLDY    66  52  60 VRB3      29.84S
L.A. AIRPORT   MOCLDY    63  56  78 S7        29.84S
SAN DIEGO      PTCLDY    67  58  72 CALM      29.87F
BURBANK        MOCLDY    69  48  47 E8        29.85S
ONTARIO        PTCLDY    65  42  43 NW3       29.86S
RIVERSIDE      CLEAR     69  44  40 CALM      29.86S
PALM SPRINGS   CLEAR     82  33  17 CALM      29.78F
EL CENTRO NAS  CLEAR     78  29  16 SW9       29.77S
IMPERIAL       CLEAR     76  38  25 VRB6      29.75S
BLYTHE         CLEAR     70  29  21 N5        29.76F
NEEDLES        CLEAR     74  22  14 CALM      29.79F
$$

NVZ020-UTZ003-230800-
SOUTHERN NEVADA-UTAH

CITY           SKY/WX    TMP DP  RH WIND       PRES   REMARKS
LAS VEGAS      MOCLDY    71  26  18 SW3       29.84F
SALT LAKE CITY PTCLDY    49  36  61 E7        29.96F
$$

NMZ009-TXZ055-230800-
NEW MEXICO-WEST TEXAS

CITY           SKY/WX    TMP DP  RH WIND       PRES   REMARKS
ALBUQUERQUE    CLEAR     49  28  44 E23G31    30.24R
EL PASO        CLEAR     59  33  37 E10       30.19R
$$


........................KEY........................
SKY/WX - SKY CONDITION/WEATHER
TMP    - TEMPERATURE IN FAHRENHEIT
DP     - DEW POINT IN FAHRENHEIT
RH     - RELATIVE HUMIDITY IN PERCENT
WIND   - DIRECTION AND SPEED IN MILES PER HOUR (MPH)
VRB    - VARIABLE WIND DIRECTION
PRES   - MEAN SEA LEVEL PRESSURE IN INCHES OF MERCURY
         F - FALLING PRESSURE   R - RISING PRESSURE
         S - STEADY PRESSURE
VSB    - VISIBILITY IN MILES
HX     - HEAT INDEX IN FAHRENHEIT
WCI    - WIND CHILL INDEX IN FAHRENHEIT
TC     - TEMPERATURE IN CELSIUS WHICH IS ALSO KNOWN AS
         TEMPERATURE IN CENTIGRADE
AFB    - AIR FORCE BASE
         LUKE AFB IS LUKE AIR FORCE BASE
         DAVIS-MONTHAN IS DAVIS-MONTHAN AIR FORCE BASE
NAS    - NAVAL AIR STATION
         EL CENTRO NAS IS EL CENTRO NAVAL AIR STATION
N/A    - NOT AVAILABLE




USA.gov is the U.S. government's official web portal to all federal, state and local government web resources and services.